Location: Unnamed
(45.3580°N, 90.2245°W)
Time: 09:38:28
(UTC-05:00)

Envisat - Pass Details

Date: 06 March 2021
Orbit: 764 x 766 km, 98.1° (Epoch: 17 April)

Event Time Altitude Azimuth Distance (km) Brightness Sun altitude
Rises 05:27:24 0° 16° (NNE) 3,244 6.5 -11.7°
Reaches altitude 10° 05:29:46 10° 21° (NNE) 2,313 5.8 -11.3°
Maximum altitude 05:34:48 59° 101° (E) 881 3.7 -10.4°
Drops below altitude 10° 05:39:47 10° 181° (S) 2,294 5.5 -9.6°
Sets 05:42:07 0° 185° (S) 3,216 6.2 -9.2°
